KC1SQ Weather Reports


Display with metric or nautical units.
time (UTC)temp
F
wind
direction
speed
MPH
gust
MPH
rain 1hr
in
rain 24hr
in
rain mn
in
humidity
%
barometer
mb
20260903135311 62 204 0.0 0.0 0.00 0.09 0.09 80 1015.4
20260903134803 61 203 0.0 0.0 0.00 0.09 0.09 80 1015.3
20260903134257 61 203 0.0 0.0 0.00 0.09 0.09 80 1015.4
20260903133751 61 203 0.0 0.0 0.00 0.09 0.09 80 1015.2
20260903133245 61 203 0.0 0.0 0.00 0.09 0.09 80 1015.2
20260903132739 61 203 0.0 0.0 0.00 0.09 0.09 80 1015.4
20260903132233 61 203 0.0 0.0 0.00 0.09 0.09 80 1015.4
20260903131953 61 203 0.0 0.0 0.00 0.09 0.09 80 1015.5
20260903131449 61 203 0.0 0.0 0.01 0.09 0.09 80 1015.5
20260903130715 61 203 0.0 0.0 0.01 0.09 0.09 80 1015.5
20260903130447 61 203 0.0 0.0 0.01 0.09 0.09 80 1015.6
20260903125703 61 203 0.0 1.0 0.01 0.09 0.09 80 1015.7
20260903125157 61 204 0.0 1.0 0.01 0.09 0.09 80 1015.7
20260903124911 60 204 0.0 0.0 0.01 0.09 0.09 80 1015.8
20260903124145 60 203 0.0 0.0 0.01 0.09 0.09 80 1015.8
20260903123639 60 203 0.0 0.0 0.02 0.09 0.09 80 1015.8
20260903123133 60 203 0.0 0.0 0.02 0.09 0.09 80 1015.9
20260903122628 60 203 0.0 0.0 0.02 0.09 0.09 80 1016.0
20260903122122 60 203 0.0 0.0 0.02 0.09 0.09 80 1016.0
20260903121615 60 203 0.0 0.0 0.02 0.09 0.09 80 1016.1
20260903121335 60 203 0.0 0.0 0.01 0.08 0.08 80 1016.1
20260903120820 60 203 0.0 0.0 0.01 0.08 0.08 80 1016.1
20260903120057 60 203 0.0 0.0 0.01 0.08 0.08 80 1016.2
20260903115821 60 203 0.0 0.0 0.01 0.08 0.08 80 1016.3
20260903115045 60 203 0.0 0.0 0.01 0.08 0.08 80 1016.4
20260903114539 60 203 0.0 0.0 0.01 0.08 0.08 80 1016.5
20260903114033 60 203 0.0 0.0 0.01 0.08 0.08 79 1016.3
20260903113528 60 203 0.0 0.0 0.00 0.07 0.07 79 1016.5
20260903113021 60 203 0.0 0.0 0.00 0.07 0.07 79 1016.5
20260903112515 60 203 0.0 0.0 0.00 0.07 0.07 79 1016.3
20260903112009 60 204 0.0 0.0 0.00 0.07 0.07 79 1016.3
20260903111731 60 204 0.0 0.0 0.00 0.07 0.07 79 1016.4
20260903110957 60 204 0.0 0.0 0.00 0.07 0.07 79 1016.3
20260903110451 60 204 0.0 0.0 0.00 0.07 0.07 79 1016.1
20260903105945 60 204 0.0 1.0 0.00 0.07 0.07 79 1016.1
20260903105708 60 204 0.0 1.0 0.00 0.07 0.07 79 1016.0
20260903104933 60 204 0.0 0.0 0.00 0.07 0.07 79 1016.0
20260903104427 60 204 0.0 0.0 0.00 0.07 0.07 79 1015.9
20260903103921 61 204 0.0 0.0 0.00 0.07 0.07 79 1016.0
20260903103415 61 204 0.0 0.0 0.00 0.07 0.07 79 1016.1
20260903102909 61 204 0.0 0.0 0.00 0.07 0.07 79 1016.2
20260903102404 61 204 0.0 1.0 0.00 0.07 0.07 79 1016.4
20260903101856 61 203 0.0 1.0 0.00 0.07 0.07 79 1016.3
20260903101351 61 204 0.0 0.0 0.00 0.07 0.07 79 1016.2
20260903100845 61 204 0.0 1.0 0.00 0.07 0.07 79 1016.4
20260903100558 61 204 0.0 1.0 0.00 0.07 0.07 79 1016.2
20260903095833 61 204 0.0 0.0 0.02 0.07 0.07 79 1016.3
20260903095327 61 203 0.0 0.0 0.03 0.07 0.07 79 1016.2
20260903094821 61 204 0.0 0.0 0.05 0.07 0.07 79 1016.2
20260903094315 61 204 0.0 0.0 0.06 0.07 0.07 79 1016.2
20260903093815 61 204 0.0 0.0 0.06 0.07 0.07 79 1016.1
20260903093315 61 204 0.0 0.0 0.06 0.07 0.07 79 1016.2
20260903092815 61 204 0.0 0.0 0.06 0.07 0.07 79 1016.2
20260903092544 61 204 0.0 0.0 0.06 0.07 0.07 79 1016.5
20260903091812 61 204 0.0 0.0 0.06 0.07 0.07 78 1016.6
20260903091311 61 204 0.0 0.0 0.06 0.07 0.07 78 1016.6
20260903090813 61 204 0.0 0.0 0.06 0.07 0.07 78 1016.7
20260903090536 61 204 0.0 1.0 0.06 0.07 0.07 79 1016.8
20260903090032 61 204 0.0 1.0 0.04 0.05 0.06 79 1017.0
20260903085538 61 204 0.0 1.0 0.03 0.04 0.04 79 1017.0
20260903085037 61 204 0.0 0.0 0.01 0.02 0.02 79 1016.9
20260903084308 61 204 0.0 0.0 0.00 0.01 0.01 79 1016.9
20260903083809 62 204 0.0 0.0 0.00 0.01 0.01 79 1017.0
20260903083307 62 204 0.0 0.0 0.00 0.01 0.01 79 1017.0
20260903082808 62 204 0.0 0.0 0.00 0.01 0.01 79 1017.0
20260903082309 62 204 0.0 0.0 0.00 0.01 0.01 79 1017.1
20260903081809 62 204 0.0 0.0 0.00 0.01 0.01 79 1017.0
20260903081309 62 204 0.0 0.0 0.00 0.01 0.01 79 1016.9
20260903080809 62 204 0.0 0.0 0.00 0.01 0.01 78 1016.5
20260903080308 62 204 0.0 0.0 0.00 0.01 0.01 78 1016.4
20260903075808 62 204 0.0 0.0 0.00 0.01 0.01 78 1016.5
20260903075308 62 204 0.0 0.0 0.01 0.01 0.01 78 1016.6
20260903074809 62 204 0.0 0.0 0.01 0.01 0.01 78 1016.7
20260903074307 62 204 0.0 0.0 0.01 0.01 0.01 78 1016.6
20260903074027 62 204 0.0 0.0 0.01 0.01 0.01 78 1016.7
20260903073310 62 204 0.0 0.0 0.01 0.01 0.01 78 1016.8
20260903072808 62 204 0.0 0.0 0.01 0.01 0.01 78 1016.9
20260903072308 62 204 0.0 0.0 0.01 0.01 0.01 78 1016.8
20260903071802 61 204 0.0 0.0 0.01 0.01 0.01 77 1017.1
20260903071256 61 204 0.0 0.0 0.01 0.01 0.01 77 1017.0
20260903070749 61 204 0.0 0.0 0.01 0.01 0.01 76 1017.2
20260903070245 61 204 0.0 0.0 0.01 0.01 0.01 75 1017.2
20260903065737 61 204 0.0 0.0 0.01 0.01 0.01 74 1017.4
20260903065232 61 204 0.0 0.0 0.00 0.00 0.00 73 1017.5
20260903064726 61 204 0.0 0.0 0.00 0.00 0.00 73 1017.6
20260903064220 61 204 0.0 0.0 0.00 0.00 0.00 72 1017.9
20260903063715 61 204 0.0 0.0 0.00 0.00 0.00 72 1018.2
20260903063428 61 204 0.0 0.0 0.00 0.00 0.00 71 1018.1
20260903062702 61 204 0.0 0.0 0.00 0.00 0.00 71 1018.2
20260903062156 61 204 0.0 0.0 0.00 0.00 0.00 70 1018.3
20260903061651 61 204 0.0 0.0 0.00 0.00 0.00 70 1018.3
20260903061405 61 204 0.0 0.0 0.00 0.00 0.00 69 1018.3
20260903060638 61 204 0.0 0.0 0.00 0.00 0.00 69 1018.5
20260903060132 61 204 0.0 0.0 0.00 0.00 0.00 69 1018.5
20260903055626 61 204 0.0 0.0 0.00 0.00 0.00 69 1018.6
20260903055120 61 204 0.0 0.0 0.00 0.00 0.00 68 1018.6
20260903054842 61 204 0.0 0.0 0.00 0.00 0.00 68 1018.6
20260903054108 61 204 0.0 0.0 0.00 0.00 0.00 68 1018.6
20260903053602 61 204 0.0 0.0 0.00 0.00 0.00 68 1018.7
20260903053322 61 204 0.0 0.0 0.00 0.00 0.00 68 1018.7
20260903052550 61 204 0.0 0.0 0.00 0.00 0.00 68 1018.8
20260903052044 61 204 0.0 0.0 0.00 0.00 0.00 68 1018.7
20260903051537 61 204 0.0 0.0 0.00 0.00 0.00 68 1018.8
20260903051032 61 204 0.0 0.0 0.00 0.00 0.00 68 1018.8
20260903050526 61 204 0.0 0.0 0.00 0.00 0.00 68 1018.8
20260903050020 61 204 0.0 0.0 0.00 0.00 0.00 68 1018.9
20260903045514 61 204 0.0 0.0 0.00 0.00 0.00 68 1018.8
20260903045008 61 204 0.0 0.0 0.00 0.00 0.00 68 1018.9
20260903044503 61 204 0.0 0.0 0.00 0.00 0.00 68 1019.0
20260903044220 61 204 0.0 0.0 0.00 0.00 0.00 67 1018.8
20260903043450 61 204 0.0 0.0 0.00 0.00 0.00 67 1019.0
20260903042945 61 204 0.0 0.0 0.00 0.00 0.00 67 1019.1
20260903042438 61 204 0.0 0.0 0.00 0.00 0.00 67 1019.2
20260903041934 61 204 0.0 0.0 0.00 0.00 0.00 67 1019.1
20260903041433 61 204 0.0 0.0 0.00 0.00 0.00 67 1019.2
20260903040934 61 204 0.0 0.0 0.00 0.00 0.00 67 1019.4
20260903040436 61 204 0.0 0.0 0.00 0.00 0.00 67 1019.5
20260903035933 61 204 0.0 0.0 0.00 0.00 0.00 67 1019.8
20260903035434 61 204 0.0 0.0 0.00 0.00 0.00 67 1020.0
20260903034934 61 204 0.0 0.0 0.00 0.00 0.00 67 1020.0
20260903034435 61 204 0.0 0.0 0.00 0.00 0.00 67 1020.0
20260903033934 61 204 0.0 0.0 0.00 0.00 0.00 67 1019.9
20260903033650 61 204 0.0 0.0 0.00 0.00 0.00 67 1020.0
20260903032929 61 204 0.0 0.0 0.00 0.00 0.00 67 1020.0
20260903032429 61 204 0.0 0.0 0.00 0.00 0.00 67 1020.0
20260903032152 61 204 0.0 0.0 0.00 0.00 0.00 66 1020.0
20260903031430 61 204 0.0 0.0 0.00 0.00 0.00 66 1020.0
20260903030930 61 204 0.0 0.0 0.00 0.00 0.00 66 1020.1
20260903030430 61 204 0.0 0.0 0.00 0.00 0.00 67 1020.2
20260903025931 61 204 0.0 0.0 0.00 0.00 0.00 66 1020.2
20260903025655 61 204 0.0 0.0 0.00 0.00 0.00 66 1020.2
20260903024923 61 204 0.0 0.0 0.00 0.00 0.00 66 1020.0
20260903024416 61 204 0.0 0.0 0.00 0.00 0.00 66 1019.9
20260903023910 61 204 0.0 0.0 0.00 0.00 0.00 66 1019.8
20260903023625 61 204 0.0 0.0 0.00 0.00 0.00 66 1020.0
20260903022858 61 204 0.0 0.0 0.00 0.00 0.00 66 1020.0
20260903022352 61 204 0.0 0.0 0.00 0.00 0.00 66 1020.2
20260903021846 61 204 0.0 0.0 0.00 0.00 0.00 66 1020.5
20260903021339 61 204 0.0 0.0 0.00 0.00 0.00 66 1020.5
20260903020834 61 204 0.0 0.0 0.00 0.00 0.00 66 1020.5
20260903020556 61 204 0.0 0.0 0.00 0.00 0.00 66 1020.5
20260903015822 61 204 0.0 0.0 0.00 0.00 0.00 66 1020.4
20260903015316 61 204 0.0 0.0 0.00 0.00 0.00 66 1020.4
20260903014810 61 204 0.0 0.0 0.00 0.00 0.00 66 1020.4
20260903014304 61 204 0.0 0.0 0.00 0.00 0.00 66 1020.4
20260903013758 61 204 0.0 0.0 0.00 0.00 0.00 66 1020.4
20260903013510 61 204 0.0 0.0 0.00 0.00 0.00 66 1020.4
20260903012746 61 204 0.0 0.0 0.00 0.00 0.00 66 1020.6
20260903012240 62 204 0.0 0.0 0.00 0.00 0.00 66 1020.6
20260903011734 62 204 0.0 0.0 0.00 0.00 0.00 66 1020.6
20260903011229 62 204 0.0 0.0 0.00 0.00 0.00 66 1020.5
20260903010722 62 204 0.0 0.0 0.00 0.00 0.00 66 1020.6
20260903010216 62 204 0.0 0.0 0.00 0.00 0.00 66 1020.6
20260903005710 62 204 0.0 0.0 0.00 0.00 0.00 66 1020.5
20260903005204 62 204 0.0 0.0 0.00 0.00 0.00 66 1020.1
20260903004658 62 204 0.0 0.0 0.00 0.00 0.00 66 1020.2
20260903004152 62 204 0.0 0.0 0.00 0.00 0.00 66 1019.8
20260903003646 62 204 0.0 0.0 0.00 0.00 0.00 66 1019.9
20260903003140 62 204 0.0 0.0 0.00 0.00 0.00 66 1020.4
20260903002635 62 204 0.0 0.0 0.00 0.00 0.00 66 1020.2
20260903002128 62 204 0.0 0.0 0.00 0.00 0.00 66 1020.2
20260903001622 62 204 0.0 0.0 0.00 0.00 0.00 66 1020.2
20260903001116 63 204 0.0 0.0 0.00 0.00 0.00 66 1020.2
20260903000610 63 204 0.0 0.0 0.00 0.00 0.00 66 1020.1
20260903000332 63 204 0.0 0.0 0.00 0.00 0.00 66 1020.4
20260902235558 63 204 0.0 0.0 0.00 0.00 0.00 66 1020.4
20260902235052 63 204 0.0 0.0 0.00 0.00 0.00 66 1020.2
20260902234546 63 204 0.0 0.0 0.00 0.00 0.00 66 1020.4
20260902234040 63 204 0.0 0.0 0.00 0.00 0.00 66 1020.6
20260902233534 63 204 0.0 0.0 0.00 0.00 0.00 65 1020.6
20260902233029 64 204 0.0 0.0 0.00 0.00 0.00 65 1020.7
20260902232522 64 199 0.0 0.0 0.00 0.00 0.00 65 1020.7
20260902232246 64 199 0.0 0.0 0.00 0.00 0.00 65 1020.8
20260902231736 64 199 0.0 0.0 0.00 0.00 0.00 64 1021.0
20260902231004 64 199 0.0 0.0 0.00 0.00 0.00 64 1021.1
20260902230458 64 199 0.0 0.0 0.00 0.00 0.00 64 1021.1
20260902225952 64 199 0.0 0.0 0.00 0.00 0.00 64 1021.0
20260902225446 64 199 0.0 0.0 0.00 0.00 0.00 64 1020.9
20260902224940 64 199 0.0 0.0 0.00 0.00 0.00 63 1020.9
20260902224435 65 199 0.0 0.0 0.00 0.00 0.00 63 1021.1
20260902223928 65 199 0.0 0.0 0.00 0.00 0.00 63 1021.1
20260902223422 65 199 0.0 0.0 0.00 0.00 0.00 62 1021.3
20260902222917 65 199 0.0 0.0 0.00 0.00 0.00 62 1021.4
20260902222410 65 199 0.0 0.0 0.00 0.00 0.00 62 1021.4
20260902221904 65 199 0.0 0.0 0.00 0.00 0.00 61 1021.4
20260902221623 65 199 0.0 0.0 0.00 0.00 0.00 61 1021.4
20260902220852 65 199 0.0 0.0 0.00 0.00 0.00 61 1021.4
20260902220347 65 199 0.0 0.0 0.00 0.00 0.00 61 1021.3
20260902215840 65 199 0.0 0.0 0.00 0.00 0.00 61 1021.3
20260902215558 65 199 0.0 0.0 0.00 0.00 0.00 60 1021.4
20260902214829 65 199 0.0 0.0 0.00 0.00 0.00 60 1021.4
20260902214322 66 199 0.0 0.0 0.00 0.00 0.00 60 1021.3
20260902214304 66 199 0.0 0.0 0.00 0.00 0.00 60 1021.5
20260902213310 66 199 0.0 0.0 0.00 0.00 0.00 60 1021.5
20260902212804 66 199 0.0 0.0 0.00 0.00 0.00 59 1021.4
20260902212258 66 199 0.0 0.0 0.00 0.00 0.00 59 1021.4
20260902211752 66 199 0.0 0.0 0.00 0.00 0.00 59 1021.4
20260902211247 66 199 0.0 0.0 0.00 0.00 0.00 58 1021.5
20260902210740 66 199 0.0 0.0 0.00 0.00 0.00 58 1021.5
20260902210234 66 199 0.0 0.0 0.00 0.00 0.00 59 1021.5
20260902205728 66 199 0.0 0.0 0.00 0.00 0.00 59 1021.4
20260902205228 66 199 0.0 0.0 0.00 0.00 0.00 60 1021.4
20260902204724 66 199 0.0 0.0 0.00 0.00 0.00 59 1021.6
20260902204224 66 199 0.0 0.0 0.00 0.00 0.00 59 1021.8
20260902203721 66 199 0.0 0.0 0.00 0.00 0.00 59 1022.0
20260902203220 66 199 0.0 0.0 0.00 0.00 0.00 59 1022.0
20260902203204 66 199 0.0 0.0 0.00 0.00 0.00 58 1022.0
20260902202219 67 199 0.0 0.0 0.00 0.00 0.00 58 1021.8
20260902201719 67 199 0.0 0.0 0.00 0.00 0.00 58 1021.8
20260902201441 67 199 0.0 0.0 0.00 0.00 0.00 57 1021.9
20260902200719 67 199 0.0 0.0 0.00 0.00 0.00 56 1021.9
20260902200220 67 192 0.0 0.0 0.00 0.00 0.00 57 1021.9
20260902195944 67 194 0.0 0.0 0.00 0.00 0.00 57 1022.0
20260902195220 67 194 0.0 0.0 0.00 0.00 0.00 57 1021.9
20260902194716 67 194 0.0 0.0 0.00 0.00 0.00 57 1022.0
20260902194433 67 194 0.0 0.0 0.00 0.00 0.00 57 1022.1
20260902193716 67 194 0.0 0.0 0.00 0.00 0.00 56 1022.3
20260902193441 67 227 0.0 0.0 0.00 0.00 0.00 56 1022.2
20260902192716 67 207 0.0 0.0 0.00 0.00 0.00 56 1022.3
20260902192439 67 207 0.0 0.0 0.00 0.00 0.00 57 1022.3
20260902191716 67 207 0.0 0.0 0.00 0.00 0.00 57 1022.2
20260902191214 67 207 0.0 0.0 0.00 0.00 0.00 58 1022.3
20260902190716 67 207 0.0 0.0 0.00 0.00 0.00 58 1022.4
20260902190216 67 207 0.0 0.0 0.00 0.00 0.00 57 1022.4
20260902185714 67 207 0.0 0.0 0.00 0.00 0.00 58 1022.5
20260902185216 67 207 0.0 0.0 0.00 0.00 0.00 58 1022.5
20260902184716 67 207 0.0 0.0 0.00 0.00 0.00 57 1022.6
20260902184214 67 207 0.0 0.0 0.00 0.00 0.00 57 1022.4
20260902183748 68 207 0.0 0.0 0.00 0.00 0.00 56 1022.4
20260902183737 67 207 0.0 0.0 0.00 0.00 0.00 57 1022.4
20260902182716 68 207 0.0 0.0 0.00 0.00 0.00 56 1022.4
20260902182215 68 207 0.0 0.0 0.00 0.00 0.00 56 1022.4
20260902181709 68 207 0.0 0.0 0.00 0.00 0.00 55 1022.4
20260902181210 68 207 0.0 0.0 0.00 0.00 0.00 55 1022.5
20260902180706 68 207 0.0 0.0 0.00 0.00 0.00 55 1022.5
20260902180206 68 207 0.0 0.0 0.00 0.00 0.00 55 1022.6
20260902175707 68 207 0.0 0.0 0.00 0.00 0.00 54 1022.6
20260902175204 68 207 0.0 0.0 0.00 0.00 0.00 54 1022.7
20260902174702 68 207 0.0 0.0 0.00 0.00 0.00 54 1022.6
20260902174200 68 207 0.0 0.0 0.00 0.00 0.00 55 1022.6
20260902173659 68 207 0.0 0.0 0.00 0.00 0.00 55 1022.6
20260902173419 68 207 0.0 0.0 0.00 0.00 0.00 54 1022.4
20260902172654 68 207 0.0 0.0 0.00 0.00 0.00 53 1022.4
20260902172416 68 207 0.0 0.0 0.00 0.00 0.00 54 1022.5
20260902171651 68 208 0.0 0.0 0.00 0.00 0.00 54 1022.3
20260902171150 68 208 0.0 0.0 0.00 0.00 0.00 54 1022.4
20260902170646 68 217 0.0 0.0 0.00 0.00 0.00 54 1022.2
20260902170147 68 216 0.0 0.0 0.00 0.00 0.00 53 1022.2
20260902165647 68 217 0.0 0.0 0.00 0.00 0.00 54 1022.2
20260902165144 68 184 0.0 0.0 0.00 0.00 0.00 54 1022.1
20260902164643 68 184 0.0 0.0 0.00 0.00 0.00 54 1022.2
20260902164141 68 184 0.0 0.0 0.00 0.00 0.00 52 1022.4
20260902163903 68 188 0.0 0.0 0.00 0.00 0.00 52 1022.5
20260902163141 68 188 0.0 0.0 0.00 0.00 0.00 52 1022.6
20260902162634 68 188 0.0 0.0 0.00 0.00 0.00 53 1022.7
20260902162127 68 188 0.0 0.0 0.00 0.00 0.00 52 1022.7
20260902161621 69 187 0.0 0.0 0.00 0.00 0.00 51 1022.8
20260902161115 69 187 0.0 0.0 0.00 0.00 0.00 50 1022.9
20260902160608 69 210 0.0 0.0 0.00 0.00 0.00 49 1022.9
20260902160103 69 223 0.0 0.0 0.00 0.00 0.00 50 1022.8
20260902155558 69 223 0.0 0.0 0.00 0.00 0.00 49 1022.8
20260902155051 69 223 0.0 0.0 0.00 0.00 0.00 50 1022.9
20260902154803 69 214 0.0 0.0 0.00 0.00 0.00 51 1022.9
20260902154039 69 215 0.0 0.0 0.00 0.00 0.00 54 1022.9
20260902153533 69 215 0.0 0.0 0.00 0.00 0.00 54 1023.0
20260902153246 69 212 0.0 0.0 0.00 0.00 0.00 53 1023.1
20260902152521 68 212 0.0 0.0 0.00 0.00 0.00 53 1023.0
20260902152015 68 212 0.0 0.0 0.00 0.00 0.00 52 1023.0
20260902151509 68 212 0.0 0.0 0.00 0.00 0.00 55 1023.0
20260902151224 68 214 0.0 0.0 0.00 0.00 0.00 59 1022.8
20260902150718 68 214 0.0 0.0 0.00 0.00 0.00 60 1022.8
20260902145951 68 200 0.0 0.0 0.00 0.00 0.00 61 1022.8
20260902145445 67 200 0.0 0.0 0.00 0.00 0.00 61 1022.7
20260902144939 67 200 0.0 1.0 0.00 0.00 0.00 61 1022.7
20260902144656 67 200 0.0 1.0 0.00 0.00 0.00 61 1022.7
20260902143927 67 200 0.0 0.0 0.00 0.00 0.00 61 1022.7
20260902143421 66 200 0.0 0.0 0.00 0.00 0.00 61 1022.7
20260902142916 66 200 0.0 0.0 0.00 0.00 0.00 62 1022.6
20260902142856 66 200 0.0 0.0 0.00 0.00 0.00 62 1022.9
20260902142124 66 200 0.0 0.0 0.00 0.00 0.00 61 1022.9
20260902141356 65 200 0.0 0.0 0.00 0.00 0.00 62 1022.5
20260902140851 65 200 0.0 0.0 0.00 0.00 0.00 63 1022.6
20260902140345 65 200 0.0 0.0 0.00 0.00 0.00 62 1022.7
20260902135839 65 200 0.0 0.0 0.00 0.00 0.00 63 1022.6